Torax TimeFrame

113 2024-04-21 10:55:02
NameTime LeftWindow Opens
Thanox, Balancer of Chaos1d 17:582024-04-21 22:20:02
Lord Suka1d 04:132024-04-22 12:05:01
Howldroid, Tormentor of the Pit0d 23:432024-04-22 16:35:01
Bloodchill the Grizzly0d 20:332024-04-22 19:45:02
Lord Sibannac0d 16:482024-04-22 23:30:02
Murfax, Beast of the Caves0d 14:082024-04-23 02:10:02
Quiver, The Renegade0d 13:332024-04-23 02:45:01
Amalgamated Apparition0d 13:082024-04-23 03:10:02
Brutalitar, Lord of the Underworld0d 12:332024-04-23 03:45:02
Lord Varan0d 12:232024-04-23 03:55:01
Grivvek, Protector of the Brood0d 11:082024-04-23 05:10:02
Vitkros, Hydra of the Deep0d 10:282024-04-23 05:50:02
Anvilfist0d 10:182024-04-23 06:00:02
Tylos, The Lord Master0d 09:032024-04-23 07:15:02
Crantos, Defender of Ultimation0d 08:382024-04-23 07:40:02
Rancid, Lord of Thugs0d 08:182024-04-23 08:00:02
Rezun, Demon of Madness0d 07:132024-04-23 09:05:02
Felroc, Overseer of Hellfire0d 06:032024-04-23 10:15:03
Garland, The Lord Keeper0d 05:232024-04-23 10:55:02
Volgan the Living Ironbark0d 03:382024-04-23 12:40:02
Synge, The Red Dragon0d 03:132024-04-23 13:05:02
Q-SEC Commander0d 02:482024-04-23 13:30:02
Murderface0d 02:382024-04-23 13:40:01
Crane0d 02:382024-04-23 13:40:02
Lord Narada0d 02:282024-04-23 13:50:02
Melt Bane, The Forbidden Demon Dragon0d 01:182024-04-23 15:00:02
Terrance, Rebel of Rallis0d 00:382024-04-23 15:40:02
Baron Mu, Dark Rider of the Undead0d 00:012024-04-23 16:20:01
Sigil, Lich of Woe0d 00:262024-04-23 16:45:01
Nayark the Mummified Sorcerer0d 00:512024-04-23 17:10:02
Emperor Neudeus, Controller of the Universe0d 03:162024-04-23 19:35:02
Tsort0d 03:312024-04-23 19:50:03
Great Lord Ganeshan0d 03:412024-04-23 20:00:02
Villax, Twin of Strength0d 03:412024-04-23 20:00:03
Holgor, the Holy Deity0d 04:012024-04-23 20:20:02
Wanhiroeaz the Devourer0d 04:412024-04-23 21:00:03
Ebliss, Fallen Angel of Despair0d 04:462024-04-23 21:05:02
Keeper of Nature0d 04:562024-04-23 21:15:02
Lacuste of the Swarm0d 05:312024-04-23 21:50:01
Pinosis0d 05:512024-04-23 22:10:01
Banok, Demon of Insanity0d 06:412024-04-23 23:00:03
Bolkor, the Holy Master0d 07:062024-04-23 23:25:02
Freezebreed, The Frozen Manipulator0d 07:212024-04-23 23:40:02
Envar, Demon of Lunacy0d 09:212024-04-24 01:40:01
Jazzmin, Maiden of Vitality0d 10:062024-04-24 02:25:02
Zertan, The Collector0d 10:562024-04-24 03:15:01
Nessam0d 11:462024-04-24 04:05:01
Numerocure, The Black Messenger of Evil0d 12:112024-04-24 04:30:01
Rillax, Twin of Wisdom0d 12:212024-04-24 04:40:02
Sarcrina the Astral Priestess0d 13:312024-04-24 05:50:01
Traxodon the Plaguebringer0d 14:312024-04-24 06:50:02
Gnorb0d 14:512024-04-24 07:10:02
Jorun the Blazing Swordsman0d 14:562024-04-24 07:15:02
Ancient Magus Tarkin0d 15:412024-04-24 08:00:02
Dlanod, the Crazed Chancellor0d 16:512024-04-24 09:10:01
Animated Captain0d 18:312024-04-24 10:50:02
Hyrak, Bringer of Nightmares0d 18:462024-04-24 11:05:01
Mistress of the Sword0d 19:462024-04-24 12:05:01
Hackerphage, Protector of the Gateway0d 20:562024-04-24 13:15:01
Old World Drake0d 21:162024-04-24 13:35:02
Lady Chaos, Queen of the Abyss0d 22:262024-04-24 14:45:02
Shadow0d 22:312024-04-24 14:50:01
Gorganus of the Wood0d 22:562024-04-24 15:15:02
Valzek, Harbinger of Death0d 23:062024-04-24 15:25:02
Crolvak, the Fire Master1d 01:112024-04-24 17:30:02
Smoot the Yeti1d 01:112024-04-24 17:30:03
Rotborn, Eater of the Dead1d 03:062024-04-24 19:25:02
The Emerald Assassin1d 03:312024-04-24 19:50:02
Threk, King of Lords1d 04:012024-04-24 20:20:02
Firan, the Fire Deity1d 04:212024-04-24 20:40:02
Anguish1d 05:062024-04-24 21:25:02
Lady Ariella1d 05:212024-04-24 21:40:02
Balerion, Dragon of Dread1d 05:312024-04-24 21:50:01
Agnar, Astral Betrayer1d 05:512024-04-24 22:10:02
Akkel the Enflamed Warrior1d 07:462024-04-25 00:05:02
Kretok, Descendant of Nature1d 08:462024-04-25 01:05:01
Xynak, the Arcane Master1d 08:512024-04-25 01:10:03
Nar Zhul, Slayer of All1d 10:012024-04-25 02:20:01
Detox1d 10:112024-04-25 02:30:02
Esquin, the Kinetic Master1d 10:412024-04-25 03:00:02
Archdevil Yirkon1d 10:512024-04-25 03:10:02
Sylvanna TorLai1d 11:462024-04-25 04:05:01
Nafir, God of Desolation1d 12:512024-04-25 05:10:02
Lord Xordam1d 14:312024-04-25 06:50:02
Varsanor, Master of Darkness1d 15:412024-04-25 08:00:04
Viserion, the Necrodragon1d 16:312024-04-25 08:50:01
Samatha Dark-Soul1d 17:112024-04-25 09:30:02
Raiyar, the Shadow Master1d 17:162024-04-25 09:35:01
Skybrine The Inescapable1d 18:012024-04-25 10:20:02
Skarthul the Avenged1d 22:412024-04-25 15:00:01
Dexor, Victor of Veldara2d 00:462024-04-25 17:05:01
Karvaz, Lord of Alsayic2d 01:462024-04-25 18:05:03
Dreg nor, Keeper of the Infernal Essence2d 02:212024-04-25 18:40:01
Ganja the Stone Golem2d 03:262024-04-25 19:45:02
Ormsul the Putrid2d 05:162024-04-25 21:35:01
King Ashnar, Lord of the Unliving2d 13:012024-04-26 05:20:01
Straya, the Underworld Ruler2d 15:062024-04-26 07:25:02
Jade Dragonite2d 16:112024-04-26 08:30:02
Animation of Versatility2d 20:512024-04-26 13:10:02
Shayar, the Shadow Deity3d 05:062024-04-26 21:25:02
Windstrike The Vile3d 06:362024-04-26 22:55:02
Arcon, the Arcane Deity3d 09:262024-04-27 01:45:01
Ag Nabak the Abomination3d 09:412024-04-27 02:00:03
Beast of Cards3d 13:362024-04-27 05:55:02
Noxious Slug3d 15:162024-04-27 07:35:01
Gregov, Knight of the Woods4d 00:012024-04-27 16:20:02
Slashbrood, Devourer of the Blackness4d 03:312024-04-27 19:50:01
Kinark, the Kinetic Deity4d 15:362024-04-28 07:55:02
Kro Shuk, Doomslayer6d 22:512024-04-30 15:10:01
Zikkir the Dark Archer1056d 11:482021-06-02 04:30:02
Shaik, Servant of Arkron389d 08:582023-03-31 07:20:02
Rook, Hand of Arkron389d 06:182023-03-31 10:00:03
RNGesus169d 21:332023-11-05 18:45:02